This demonstration page uses our WeatherBlox Daily Observations layout. Learn more.

Left ArrowRight Arrow

Hourly Observations for August 30, 2021

Temp ( °F °C ) Dew Point ( °F °C ) Humidity (%) Winds ( mph kmh ) Pressure ( in mb ) Visibility ( mi km ) Precip ( " mm )
12:03 am 00:03 Partly Cloudy with Nearby Thunderstorms 73 22.8 65 18.3 76 76 NNE 8 13 29.79 1009 10 16 0.00 0.00
12:19 am 00:19 Mostly Cloudy with Thunderstorms 74 23.3 66 18.9 76 76 NNE 9 15 29.77 1008 10 16 0.00 0.00
12:48 am 00:48 Cloudy with Light Rain 75 24 63 17 65 65 NW 10 17 29.74 1007 10 16 0.01 0.25
12:51 am 00:51 Cloudy with Light Rain 76 24.4 64 17.8 67 67 W 5 7 29.75 1007 10 16 0.01 0.25
1:51 am 01:51 Partly Cloudy 75 23.9 66 18.9 74 74 S 8 13 29.76 1008 10 16 0.00 0.00
2:51 am 02:51 Partly Cloudy 72 22.2 67 19.4 84 84 NW 5 7 29.76 1008 10 16 0.00 0.00
3:51 am 03:51 Clear 71 21.7 68 20 90 90 SSE 5 7 29.75 1008 10 16 0.00 0.00
4:51 am 04:51 Clear 70 21.1 68 20 93 93 SE 7 11 29.76 1008 10 16 0.00 0.00
5:51 am 05:51 Clear 72 22.2 65 18.3 79 79 SSE 12 19 29.78 1008 10 16 0.00 0.00
6:51 am 06:51 Sunny 75 23.9 62 16.7 64 64 SE 10 17 29.80 1009 10 16 0.00 0.00
7:51 am 07:51 Sunny 78 25.6 63 17.2 60 60 SE 10 17 29.80 1009 10 16 0.00 0.00
8:51 am 08:51 Sunny 83 28.3 61 16.1 48 48 ESE 7 11 29.80 1009 10 16 0.00 0.00
9:51 am 09:51 Sunny 84 28.9 64 17.8 51 51 SE 7 11 29.80 1009 10 16 0.00 0.00
10:51 am 10:51 Sunny 88 31.1 64 17.8 45 45 S 10 17 29.79 1009 10 16 0.00 0.00
11:51 am 11:51 Sunny 90 32.2 64 17.8 42 42 S 5 7 29.75 1008 10 16 0.00 0.00
12:51 pm 12:51 Sunny 92 33.3 64 17.8 40 40 VRB 6 9 29.72 1006 10 16 0.00 0.00
1:51 pm 13:51 Sunny 93 33.9 63 17.2 37 37 S 5 7 29.67 1005 10 16 0.00 0.00
2:51 pm 14:51 Sunny 95 35 62 16.7 34 34 S 9 15 29.63 1003 10 16 0.00 0.00
3:24 pm 15:24 Sunny with Nearby Thunderstorms 96 35.6 59 15 29 29 VRB 3 6 29.49 999 10 16 0.00 0.00
3:39 pm 15:39 Sunny 96 35.6 60 15.6 30 30 undefined N/A 29.49 999 10 16 0.00 0.00
3:51 pm 15:51 Sunny 96 35.6 59 15 29 29 VRB 7 11 29.61 1003 10 16 0.00 0.00
4:51 pm 16:51 Partly Cloudy 96 35.6 59 15 29 29 WSW 7 11 29.61 1003 10 16 0.00 0.00
5:04 pm 17:04 Mostly Cloudy with Thunderstorms 94 34.4 61 16.1 33 33 ENE 15 24 29.53 1000 10 16 0.00 0.00
5:17 pm 17:17 Cloudy with Thunderstorms 83 28.3 63 17.2 51 51 NNE 21 33 29.60 1002 10 16 0.00 0.00
5:51 pm 17:51 Windy with Storms Likely 77 25 67 19.4 71 71 NNE 22 35 29.69 1005 10 16 0.05 1.27
5:58 pm 17:58 Mostly Cloudy with Light Rain 77 25 66 18.9 69 69 NNE 26 43 29.64 1004 10 16 0.00 0.00
6:51 pm 18:51 Partly Cloudy 80 26.7 62 16.7 54 54 NNE 23 37 29.70 1006 10 16 0.00 0.00
7:10 pm 19:10 Mostly Clear with Nearby Thunderstorms 79 26.1 62 16.7 56 56 NE 22 35 29.66 1004 10 16 0.00 0.00
7:25 pm 19:25 Partly Cloudy 79 26.1 62 16.7 56 56 NNE 18 30 29.66 1004 10 16 0.00 0.00
7:51 pm 19:51 Mostly Cloudy 81 27.2 61 16.1 51 51 Calm 29.73 1007 10 16 0.00 0.00
8:51 pm 20:51 Mostly Clear with Light Rain 77 25 67 19.4 71 71 WNW 7 11 29.75 1007 10 16 0.00 0.00
9:51 pm 21:51 Mostly Clear 74 23.3 66 18.9 76 76 NW 14 22 29.75 1007 10 16 0.00 0.00
10:51 pm 22:51 Mostly Cloudy 75 23.9 65 18.3 71 71 N 8 13 29.75 1008 10 16 0.00 0.00
11:51 pm 23:51 Mostly Cloudy with Light Rain 72 22.2 70 21.1 94 94 Calm 29.76 1008 10 16 0.01 0.25

Powered by AerisWeather